Back to catalog

ELECTRON KICK STAGE R/B

AlivePO
NORAD 57393·ROCKET BODY·🇺🇸 United States

Launched Jul 18, 2023 from Rocket Lab Launch Complex 1

Loading…

Next Passes (next 24 hours)

TLE

FreshSource: Space-Track

Epoch: Sep 14, 2026, 06:13 UTC

1 57393U 23100H   26257.25938021  .00006680  00000-0  55157-3 0  9991
2 57393  99.3254 187.9515 0299291 315.3259  42.4177 14.70526065168351

Track ELECTRON KICK STAGE R/B in real time with AllMySat

Download on the App Store